Showing default

ICEYE-X26, 56961

Orbit data source: Space-Track

ICEYE-X26, 56961 is a payload satellite owned by ICEYE US (US) in SSO that was launched on Mon, 12 Jun 2023 UTC via an FALCON 9 launch vehicle from the Air Force Western Test Range (AFWTR). Payload-class satellites include a variety of spacecraft equipped with specific instruments for various scientific and technological missions. These include communications satellites like Starlink; space stations such as the ISS; scientific satellites like the Hubble; Earth observation satellites from companies like Planet Labs, Umbra, and HawkEye 360; GPS; miniature CubeSats for education and research; and military/defense satellites.

Loading next visibility...
Identifier
56961, 2023-084AF
Orbit
SSO
Country
Flag of USUS
Related business
Manufacturer
ICEYE
Mission
Operational Commercial Radar Imaging
Bus & Motor
ICEYE, Unknown motor
Mass
90 kg wet, 89 kg dry
Launch date (UTC)
2023-06-12 (2 years ago)
Launch vehicle
FALCON 9
Launch site
Air Force Western Test Range (AFWTR)
Object type
Payload
Rocket body
Debris
Shape & HBR
Box + 1 Pan, 1.6 m
Radar Cross Section
0.825 m², Medium (>0.1 m² and < 1m²)

Expand to show TLE details & history
Last TLE update: 9 hours ago

TLE from 9 hours ago
0 ICEYE-X26
1 56961U 23084AF  25299.65582557  .00037037  00000-0  47466-3 0  9994
2 56961  97.5732  80.1519 0000776  79.6016 280.5327 15.59088973132531
Epoch: 2025-10-26T15:44Z
TLE epoch observation values (Epoch: 2025-10-26T15:44:23.329Z)
Latitude
-0.00003°
Longitude
168.7858°
Altitude
393.335 km
Speed
7.674 km/s
True Right ascension
05h 20m 36s
True Declination
0° 00' 00"
Sunlit
Object was in full shadow at epoch
Visualization orbit readout
Latitude
Unknown
Longitude
Unknown
Altitude
Unknown
Speed
Unknown
Apparent Right ascension
Unknown
Apparent Declination
Unknown
Sunlit
N/A
Visualization observer readout
Local Sidereal Time
20:24:53
Azimuth
Unknown
Elevation
Unknown
Doppler factor
Unknown
Orbital elements
Apogee altitude
387.739 km
Perigee altitude
386.689 km
Semi-major axis
6,765.351 km
Eccentricity
0.00008
Inclination
97.5732°
RAAN
80.1519°
Arg. of periapsis
79.6016°
True anomaly
280.52396°
Mean anomaly
280.5327°
Eccentric anomaly
280.52833°
Mean motion
3.90039 °/min
Orbital period
92.3 mins
BSTAR
0.00047466
Loading maneuver chart data...
Computing Atmospheric mass density...

Documentation

Showing up to 5 results
|